Regional Weather Roundup
Issued by NWS

Home | Current Version | Previous Version | Graphics & Text | Print | Product List | Glossary On
Versions: 1 2 3 4 5 6 7 8 9 10 11 12 13 14 15 16 17 18 19 20 21 22 23 24 25 26 27 28 29 30 31 32 33 34 35 36 37 38 39 40 41 42 43 44 45 46 47 48 49 50
088
ASUS43 KOAX 250103
RWRNE

WEATHER ROUNDUP FOR NEBRASKA
NATIONAL WEATHER SERVICE OMAHA NE
800 PM CDT THU MAY 24 2018

NOTES: SATELLITE DATA IS BEING USED TO AUGMENT CLOUD COVER ABOVE
       12000 FEET.
       "FAIR" INDICATES FEW OR NO CLOUDS BELOW 12,000 FEET WITH NO
       SIGNIFICANT WEATHER AND/OR OBSTRUCTIONS TO VISIBILITY.


NEZ001>004-019>022-054>056-250200-
NEBRASKA PANHANDLE

CITY           SKY/WX    TMP DP  RH WIND       PRES   REMARKS
SCOTTSBLUFF    SUNNY     79  51  37 SW14      29.97S
ALLIANCE       SUNNY     79  52  38 CALM      29.96S
CHADRON        SUNNY     81  50  33 CALM      29.93S
SIDNEY         PTSUNNY   80  45  28 NW7       30.03R
$$

NEZ057>060-069>072-079>082-250200-
SOUTHWEST NEBRASKA

CITY           SKY/WX    TMP DP  RH WIND       PRES   REMARKS
NORTH PLATTE   CLEAR     81  66  60 SE6       29.92F
IMPERIAL       SUNNY     83  54  36 E6        29.95F
MCCOOK         MOCLDY    83  60  45 NW10      29.91R
$$

NEZ005>010-023>029-035>040-094-250200-
NORTH CENTRAL NEBRASKA

CITY           SKY/WX    TMP DP  RH WIND       PRES   REMARKS
VALENTINE      MOSUNNY   84  55  36 NW12      29.87F
BROKEN BOW     CLEAR     83  66  56 SE5       29.90F
$$

NEZ041-046>049-061>064-073>077-083>087-250200-
SOUTH CENTRAL NEBRASKA

CITY           SKY/WX    TMP DP  RH WIND       PRES   REMARKS
GRAND ISLAND   CLEAR     82  57  42 S13G22    29.90F
KEARNEY        CLEAR     81  60  48 S16G22    29.91S
$$

NEZ011>018-030>034-042>045-250200-
NORTHEAST NEBRASKA

CITY           SKY/WX    TMP DP  RH WIND       PRES   REMARKS
COLUMBUS       CLEAR     85  57  38 S12       29.90S
TEKAMAH        CLEAR     84  65  52 S13       29.88F
$$

NEZ050>053-065>068-078-088>093-250200-
SOUTHEAST NEBRASKA

CITY           SKY/WX    TMP DP  RH WIND       PRES   REMARKS
LINCOLN        CLOUDY    83  65  54 S8        29.90S
OMAHA EPPLEY   CLOUDY    86  62  44 SE16      29.89F
FALLS CITY     CLOUDY    76  64  66 S14       29.95S
$$

NEZ044-045-051>053-067-250200-
OMAHA AREA

CITY           SKY/WX    TMP DP  RH WIND       PRES   REMARKS
OMAHA EPPLEY   CLOUDY    86  62  44 SE16      29.89F
OFFUTT AFB     CLOUDY    84  68  57 SE10      29.89F
$$




USA.gov is the U.S. government's official web portal to all federal, state and local government web resources and services.